Location: Krakow
(50.0830°N, 19.9170°E)
Time: 04:28:20
(UTC+02:00)

Tiros 1 - Pass Details

Date: 14 February 2023
Orbit: 627 x 662 km, 48.4° (Epoch: 25 March)

Event Time Altitude Azimuth Distance (km) Brightness Sun altitude
Rises 02:50:57 0° 275° (W) 2,918 - -38.5°
Reaches altitude 10° 02:55:05 10° 239° (WSW) 2,012 - -38.0°
Maximum altitude 02:56:16 11° 225° (SW) 1,954 - -37.8°
Drops below altitude 10° 02:57:27 10° 210° (SSW) 2,014 - -37.6°
Sets 03:01:36 0° 174° (S) 2,926 - -37.0°
